�������l�o���
Date,Time,MP-1(��Sv/h),MP-2(��Sv/h),MP-3(��Sv/h),MP-4(��Sv/h),MP-5(��Sv/h),MP-6(��Sv/h),MP-7(��Sv/h),����,����(m/s),���J
2015/07/15,00:00,0.516,0.312,0.533,0.491,0.465,0.241,0.212,���쐼,2.6,��
2015/07/15,00:10,0.521,0.315,0.539,0.493,0.471,0.240,0.211,���k��,1.8,��
2015/07/15,00:20,0.526,0.316,0.541,0.490,0.468,0.240,0.210,�k��,0.7,��
2015/07/15,00:30,0.519,0.314,0.536,0.485,0.466,0.241,0.212,-,CALM,��
2015/07/15,00:40,0.513,0.312,0.533,0.492,0.466,0.241,0.211,-,CALM,��
2015/07/15,00:50,0.523,0.316,0.540,0.493,0.473,0.240,0.210,-,CALM,��
2015/07/15,01:00,0.522,0.314,0.540,0.488,0.469,0.242,0.212,-,CALM,��
2015/07/15,01:10,0.519,0.313,0.536,0.485,0.466,0.241,0.211,�k�k��,0.6,��
2015/07/15,01:20,0.518,0.315,0.533,0.491,0.467,0.240,0.211,�k�k��,0.5,��
2015/07/15,01:30,0.524,0.315,0.544,0.490,0.474,0.241,0.211,-,CALM,��
2015/07/15,01:40,0.521,0.313,0.542,0.488,0.470,0.242,0.211,-,CALM,��
2015/07/15,01:50,0.518,0.314,0.536,0.485,0.466,0.241,0.211,-,CALM,��
2015/07/15,02:00,0.524,0.316,0.537,0.494,0.470,0.242,0.212,-,CALM,��
2015/07/15,02:10,0.522,0.315,0.542,0.490,0.472,0.242,0.212,��,1.4,��
2015/07/15,02:20,0.516,0.314,0.539,0.486,0.468,0.241,0.210,��쐼,2.6,��
2015/07/15,02:30,0.523,0.315,0.532,0.488,0.467,0.242,0.212,��쐼,3.0,��
2015/07/15,02:40,0.525,0.313,0.542,0.494,0.475,0.242,0.212,��쐼,3.0,��
2015/07/15,02:50,0.519,0.313,0.541,0.487,0.470,0.242,0.211,��쐼,3.4,��
2015/07/15,03:00,0.518,0.315,0.536,0.486,0.467,0.241,0.211,���쐼,2.6,��
2015/07/15,03:10,0.526,0.315,0.538,0.494,0.472,0.242,0.213,��,1.3,��
2015/07/15,03:20,0.520,0.312,0.545,0.492,0.473,0.241,0.211,�k��,1.3,��
2015/07/15,03:30,0.516,0.317,0.539,0.487,0.468,0.242,0.212,�k��,1.4,��
2015/07/15,03:40,0.524,0.314,0.534,0.489,0.466,0.241,0.212,�k��,1.1,��
2015/07/15,03:50,0.523,0.314,0.541,0.493,0.473,0.240,0.210,�k�k��,0.7,��
2015/07/15,04:00,0.517,0.316,0.539,0.490,0.470,0.242,0.212,���쐼,0.5,��
2015/07/15,04:10,0.521,0.314,0.534,0.486,0.467,0.241,0.212,���쐼,0.6,��
2015/07/15,04:20,0.525,0.313,0.539,0.495,0.472,0.242,0.210,��쐼,1.0,��
2015/07/15,04:30,0.518,0.316,0.539,0.490,0.473,0.240,0.212,��쐼,1.5,��
2015/07/15,04:40,0.518,0.314,0.535,0.485,0.467,0.241,0.209,��쐼,2.8,��
2015/07/15,04:50,0.523,0.312,0.537,0.492,0.469,0.241,0.210,��쐼,2.9,��
2015/07/15,05:00,0.518,0.316,0.543,0.491,0.471,0.241,0.212,��쐼,3.4,��
2015/07/15,05:10,0.516,0.313,0.538,0.486,0.466,0.240,0.209,��쐼,3.6,��
2015/07/15,05:20,0.523,0.312,0.534,0.490,0.467,0.241,0.209,��쐼,3.9,��
2015/07/15,05:30,0.517,0.316,0.542,0.492,0.473,0.242,0.212,��쐼,3.1,��
2015/07/15,05:40,0.514,0.313,0.539,0.487,0.469,0.240,0.211,��쐼,3.1,��
2015/07/15,05:50,0.524,0.312,0.534,0.483,0.464,0.241,0.210,��,3.9,��
2015/07/15,06:00,0.523,0.310,0.538,0.493,0.463,0.241,0.210,��쐼,4.1,��
2015/07/15,06:10,0.518,0.314,0.540,0.489,0.471,0.242,0.213,��쐼,4.4,��
2015/07/15,06:20,0.519,0.315,0.535,0.486,0.473,0.241,0.211,��쐼,5.0,��
2015/07/15,06:30,0.521,0.315,0.534,0.486,0.469,0.241,0.210,��쐼,4.4,��
2015/07/15,06:40,0.520,0.311,0.541,0.492,0.466,0.241,0.210,��쐼,4.1,��
2015/07/15,06:50,0.517,0.312,0.539,0.488,0.465,0.240,0.208,��쐼,4.1,��
2015/07/15,07:00,0.514,0.311,0.535,0.486,0.465,0.239,0.208,��쐼,3.4,��
2015/07/15,07:10,0.522,0.311,0.533,0.483,0.469,0.240,0.207,��쐼,2.5,��
2015/07/15,07:20,0.521,0.312,0.531,0.483,0.471,0.240,0.208,��쐼,2.1,��
2015/07/15,07:30,0.520,0.311,0.531,0.481,0.469,0.240,0.210,��쐼,2.3,��
2015/07/15,07:40,0.515,0.312,0.533,0.485,0.468,0.239,0.209,��쐼,2.5,��
2015/07/15,07:50,0.515,0.312,0.532,0.483,0.468,0.240,0.210,��쐼,1.9,��
2015/07/15,08:00,0.516,0.312,0.535,0.483,0.468,0.240,0.209,��쐼,1.9,��
2015/07/15,08:10,0.514,0.313,0.533,0.484,0.467,0.240,0.211,��쐼,2.0,��
2015/07/15,08:20,0.513,0.313,0.535,0.487,0.466,0.240,0.211,��쐼,1.8,��
2015/07/15,08:30,0.515,0.314,0.535,0.489,0.467,0.241,0.211,�쐼,1.3,��
2015/07/15,08:40,0.516,0.314,0.535,0.489,0.469,0.241,0.210,��쐼,1.7,��
2015/07/15,08:50,0.515,0.315,0.534,0.490,0.468,0.240,0.211,��,1.6,��
2015/07/15,09:00,0.516,0.314,0.534,0.490,0.468,0.240,0.212,��,1.7,��
2015/07/15,09:10,0.518,0.314,0.533,0.489,0.468,0.240,0.210,��쓌,3.3,��
2015/07/15,09:20,0.520,0.313,0.534,0.487,0.469,0.240,0.211,��쓌,3.7,��
2015/07/15,09:30,0.519,0.314,0.536,0.489,0.469,0.240,0.211,��,4.4,��
2015/07/15,09:40,0.518,0.313,0.535,0.491,0.469,0.241,0.210,��,5.0,��
2015/07/15,09:50,0.518,0.312,0.534,0.492,0.469,0.240,0.210,��,6.7,��
2015/07/15,10:00,0.519,0.314,0.536,0.491,0.471,0.240,0.210,��,7.1,��
2015/07/15,10:10,0.521,0.314,0.535,0.492,0.469,0.239,0.210,��,7.2,��
2015/07/15,10:20,0.520,0.312,0.536,0.492,0.470,0.240,0.209,��,7.5,��
2015/07/15,10:30,0.518,0.313,0.536,0.492,0.471,0.240,0.210,��,5.4,��
2015/07/15,10:40,0.519,0.312,0.536,0.492,0.469,0.242,0.211,��,4.3,��
2015/07/15,10:50,0.520,0.314,0.538,0.493,0.471,0.241,0.211,��,5.3,��
2015/07/15,11:00,0.519,0.315,0.539,0.493,0.470,0.240,0.211,��,8.1,��
2015/07/15,11:10,0.521,0.315,0.538,0.492,0.468,0.241,0.210,��,8.6,��
2015/07/15,11:20,0.520,0.314,0.539,0.490,0.469,0.240,0.210,��,9.9,��
2015/07/15,11:30,0.520,0.314,0.541,0.489,0.466,0.241,0.209,��,10.7,��
2015/07/15,11:40,0.520,0.314,0.541,0.489,0.466,0.240,0.209,��쐼,7.4,��
2015/07/15,11:50,0.519,0.313,0.541,0.488,0.466,0.240,0.210,��,8.9,��
2015/07/15,12:00,0.519,0.315,0.542,0.489,0.466,0.240,0.210,��,7.6,��
2015/07/15,12:10,0.519,0.315,0.540,0.489,0.467,0.240,0.210,��,7.5,��
2015/07/15,12:20,0.520,0.314,0.539,0.490,0.466,0.241,0.211,��,9.2,��
2015/07/15,12:30,0.521,0.314,0.540,0.492,0.468,0.240,0.210,��,9.0,��
2015/07/15,12:40,0.519,0.313,0.541,0.490,0.468,0.239,0.210,��,10.6,��
2015/07/15,12:50,0.519,0.314,0.540,0.490,0.468,0.241,0.211,��,9.3,��
2015/07/15,13:00,0.518,0.313,0.541,0.490,0.468,0.240,0.209,��,9.1,��
2015/07/15,13:10,0.521,0.313,0.540,0.490,0.467,0.240,0.208,��,9.5,��
2015/07/15,13:20,0.519,0.313,0.537,0.488,0.466,0.240,0.210,��,8.4,��
2015/07/15,13:30,0.518,0.313,0.537,0.486,0.467,0.240,0.211,��,8.9,��
2015/07/15,13:40,0.518,0.313,0.535,0.486,0.466,0.240,0.209,��,10.9,��
2015/07/15,13:50,0.517,0.312,0.534,0.487,0.463,0.240,0.209,��,10.2,��
2015/07/15,14:00,0.518,0.312,0.533,0.485,0.464,0.241,0.210,��,11.2,��
2015/07/15,14:10,0.516,0.309,0.534,0.485,0.467,0.238,0.209,��,9.4,��
2015/07/15,14:20,0.516,0.312,0.534,0.487,0.464,0.239,0.210,��,9.5,��
2015/07/15,14:30,0.516,0.312,0.533,0.486,0.462,0.239,0.209,��쐼,9.3,��
2015/07/15,14:40,0.516,0.311,0.532,0.486,0.466,0.240,0.209,��쐼,8.5,��
2015/07/15,14:50,0.516,0.312,0.532,0.486,0.462,0.241,0.208,��쐼,8.0,��
2015/07/15,15:00,0.515,0.311,0.532,0.484,0.463,0.240,0.208,��쐼,7.8,��
2015/07/15,15:10,0.523,0.311,0.533,0.486,0.463,0.240,0.210,��쐼,7.8,��
2015/07/15,15:20,0.523,0.313,0.533,0.486,0.465,0.240,0.211,��쐼,9.2,��
2015/07/15,15:30,0.519,0.310,0.533,0.486,0.466,0.239,0.210,��쐼,8.0,��
2015/07/15,15:40,0.518,0.312,0.533,0.485,0.466,0.241,0.210,��쐼,6.7,��
2015/07/15,15:50,0.516,0.310,0.534,0.485,0.463,0.243,0.210,��쐼,8.9,��
2015/07/15,16:00,0.522,0.311,0.540,0.490,0.464,0.242,0.208,��쐼,11.1,��
2015/07/15,16:10,0.525,0.315,0.541,0.494,0.464,0.241,0.211,��쐼,11.5,��
2015/07/15,16:20,0.524,0.316,0.540,0.492,0.472,0.240,0.212,��쐼,9.8,��
2015/07/15,16:30,0.517,0.316,0.537,0.489,0.472,0.240,0.209,��쐼,9.5,��
2015/07/15,16:40,0.518,0.313,0.536,0.488,0.471,0.241,0.210,��쐼,8.7,��
2015/07/15,16:50,0.517,0.312,0.534,0.487,0.467,0.239,0.209,��쐼,9.8,��
2015/07/15,17:00,0.524,0.311,0.534,0.485,0.464,0.240,0.209,��쐼,9.9,��
2015/07/15,17:10,0.523,0.311,0.541,0.492,0.465,0.241,0.210,��쐼,8.1,��
2015/07/15,17:20,0.520,0.312,0.542,0.494,0.466,0.242,0.211,��쐼,8.8,��
2015/07/15,17:30,0.519,0.311,0.539,0.492,0.467,0.242,0.211,��쐼,7.7,��
2015/07/15,17:40,0.518,0.311,0.537,0.491,0.468,0.240,0.211,��쐼,7.9,��
2015/07/15,17:50,0.515,0.312,0.536,0.487,0.467,0.240,0.209,��쐼,8.1,��
2015/07/15,18:00,0.517,0.311,0.536,0.487,0.467,0.240,0.210,��쐼,7.7,��
2015/07/15,18:10,0.520,0.314,0.535,0.486,0.467,0.241,0.211,��,8.4,��
2015/07/15,18:20,0.524,0.317,0.537,0.486,0.464,0.240,0.211,��,9.5,��
2015/07/15,18:30,0.521,0.316,0.539,0.492,0.466,0.240,0.210,��,10.3,��
2015/07/15,18:40,0.519,0.313,0.543,0.493,0.471,0.242,0.210,��쐼,10.2,��
2015/07/15,18:50,0.517,0.313,0.540,0.492,0.473,0.242,0.212,��쐼,8.0,��
2015/07/15,19:00,0.526,0.315,0.536,0.489,0.469,0.241,0.210,��쐼,7.0,��
2015/07/15,19:10,0.527,0.315,0.536,0.487,0.467,0.240,0.208,��쐼,7.0,��
2015/07/15,19:20,0.520,0.314,0.542,0.494,0.465,0.241,0.211,��쐼,7.2,��
2015/07/15,19:30,0.518,0.313,0.541,0.494,0.472,0.241,0.212,��쐼,6.1,��
2015/07/15,19:40,0.520,0.313,0.538,0.491,0.471,0.240,0.210,��쐼,7.8,��
2015/07/15,19:50,0.525,0.315,0.536,0.486,0.468,0.240,0.209,��쐼,9.1,��
2015/07/15,20:00,0.520,0.312,0.536,0.490,0.464,0.241,0.211,��쐼,10.2,��
2015/07/15,20:10,0.517,0.314,0.544,0.494,0.472,0.241,0.211,��쐼,9.3,��
2015/07/15,20:20,0.520,0.313,0.541,0.490,0.471,0.241,0.210,��,9.3,��
2015/07/15,20:30,0.524,0.315,0.536,0.487,0.467,0.239,0.209,��쐼,10.1,��
2015/07/15,20:40,0.522,0.312,0.535,0.487,0.465,0.241,0.211,��쐼,10.7,��
2015/07/15,20:50,0.517,0.311,0.541,0.494,0.470,0.240,0.211,��쐼,9.3,��
2015/07/15,21:00,0.519,0.314,0.541,0.490,0.470,0.241,0.210,��쐼,9.3,��
2015/07/15,21:10,0.524,0.314,0.537,0.489,0.467,0.240,0.210,��쐼,9.7,��
2015/07/15,21:20,0.521,0.313,0.534,0.487,0.465,0.240,0.211,��쐼,9.2,��
2015/07/15,21:30,0.516,0.311,0.540,0.494,0.472,0.240,0.211,��쐼,8.9,��
2015/07/15,21:40,0.518,0.315,0.542,0.492,0.471,0.241,0.209,��쐼,8.3,��
2015/07/15,21:50,0.521,0.316,0.539,0.489,0.467,0.239,0.210,��쐼,8.5,��
2015/07/15,22:00,0.521,0.312,0.534,0.486,0.463,0.240,0.212,��쐼,9.4,��
2015/07/15,22:10,0.517,0.313,0.538,0.491,0.472,0.241,0.211,��쐼,8.8,��
2015/07/15,22:20,0.520,0.317,0.543,0.495,0.469,0.240,0.210,��쐼,8.6,��
2015/07/15,22:30,0.524,0.312,0.539,0.489,0.467,0.241,0.211,��쐼,7.7,��
2015/07/15,22:40,0.520,0.312,0.537,0.486,0.464,0.240,0.212,��쐼,8.3,��
2015/07/15,22:50,0.515,0.314,0.536,0.491,0.471,0.241,0.210,��쐼,8.9,��
2015/07/15,23:00,0.523,0.316,0.540,0.492,0.469,0.242,0.210,��쐼,8.3,��
2015/07/15,23:10,0.523,0.313,0.540,0.489,0.466,0.240,0.211,��쐼,7.1,��
2015/07/15,23:20,0.519,0.314,0.535,0.486,0.465,0.238,0.211,��쐼,6.8,��
2015/07/15,23:30,0.515,0.314,0.535,0.490,0.472,0.242,0.210,��,6.5,��
2015/07/15,23:40,0.525,0.312,0.543,0.494,0.469,0.241,0.212,��,6.8,��
2015/07/15,23:50,0.523,0.315,0.539,0.491,0.466,0.240,0.211,��,7.8,�L
